Regional Weather Roundup
Issued by NWS Northern Indiana

Home | Current Version | Previous Version | Text Only | Print | Product List | Glossary Off
Versions: 1 2 3 4 5 6 7 8 9 10 11 12 13 14 15 16 17 18 19 20 21 22 23 24 25 26 27 28 29 30 31 32 33 34 35 36 37 38 39 40 41 42 43 44 45 46 47 48 49 50

000
ASUS43 KIWX 241710
RWRIWX

KIWX WEATHER ROUNDUP
NATIONAL WEATHER SERVICE NORTHERN INDIANA
100 PM EDT TUE APR 24 2018

NOTE: "FAIR" INDICATES FEW OR NO CLOUDS BELOW 12,000 FEET WITH NO
SIGNIFICANT WEATHER AND/OR OBSTRUCTIONS TO VISIBILITY.

* THESE STATIONS ARE NOT UNDER NWS QUALITY CONTROL. THEY ALSO MAY NOT
  REPORT WEATHER SUCH AS PRECIPITATION OR FOG.

INZ001>027-241800-
NORTHERN INDIANA

CITY           SKY/WX    TMP DP  RH WIND       PRES   REMARKS
GARY*          PTSUNNY   57  46  67 N9        30.05S
VALPARAISO     CLOUDY    61  51  70 NE8       30.02F
MICHIGAN CITY* CLOUDY    59  50  72 NE3       30.03F
LAPORTE*       CLOUDY    59  50  73 E7        30.02F
KNOX*          CLOUDY    59  50  72 NE5       30.01F
SOUTH BEND     CLOUDY    57  48  72 E5        30.03F
ELKHART*       CLOUDY    57  48  72 E7        30.02F
GOSHEN         CLOUDY    58  50  75 E9        30.01F
MONTICELLO*    CLOUDY    57  50  79 E5        29.99F
LOGANSPORT*    CLOUDY    54  50  87 E8        30.01S
ROCHESTER*     CLOUDY    55  54  94 NE3       30.02S FOG
WARSAW*        CLOUDY    55  50  82 E8        30.01F
AUBURN*        CLOUDY    55  50  82 E9        30.02F
FORT WAYNE     CLOUDY    57  51  80 E10       30.00F
HUNTINGTON*    CLOUDY    56  50  80 E7        29.99F
PERU/GRISSOM   DRIZZLE   55  55 100 NE7       29.98F FOG
MARION*        CLOUDY    55  51  85 CALM      29.99S FOG

$$
INZ028>050-241800-
CENTRAL INDIANA

CITY           SKY/WX    TMP DP  RH WIND       PRES   REMARKS
LAFAYETTE      CLOUDY    57  52  83 NE12      29.98F
KOKOMO*        CLOUDY    55  52  89 NE8       29.99F
MUNCIE*        CLOUDY    56  53  90 E9        29.98S FOG
INDIANAPOLIS   DRIZZLE   54  53  97 NE8       29.96F FOG

$$
MIZ043>046-050>051-056>058-064>065-071>073-077>080-241800-
SOUTHWEST LOWER MICHIGAN

CITY           SKY/WX    TMP DP  RH WIND       PRES   REMARKS
BATTLE CREEK   CLOUDY    57  49  74 E7        30.05F
BENTON HARBOR  CLOUDY    64  48  56 E7        30.02F
COLDWATER*     CLOUDY    56  50  81 E7        30.04F
HILLSDALE*     CLOUDY    52  46  82 E9        30.04F
HOLLAND        CLOUDY    60  49  66 SE8       30.05F
GRAND RAPIDS   CLOUDY    59  48  67 E8        30.06F
KALAMAZOO      CLOUDY    59  48  67 E7        30.05F
STURGIS*       CLOUDY    58  50  73 E8        30.02F
THREE RIVERS*  CLOUDY    59  49  68 E10       30.04F

$$
OHZ001>008-015>018-024>025-241800-
NORTHWEST OHIO

CITY           SKY/WX    TMP DP  RH WIND       PRES   REMARKS
WAUSEON*       CLOUDY    55  55 100 E14       30.03F
DEFIANCE       CLOUDY    56  50  80 E13       30.02F
FINDLAY        LGT RAIN  55  51  86 E9        30.01F FOG
TOLEDO EXPRESS CLOUDY    55  54  96 E9        30.04S
TOLEDO METCALF CLOUDY    54  51  90 E10       30.05F
LIMA           CLOUDY    54  53  97 SE10      29.99F FOG

$$
AND FOR LAKE MICHIGAN COASTAL AND OPEN LAKE BUOY OBSERVATIONS

STATION/POSITION TEMP    WIND        PRES    VSBY  WAVE
                 AIR SEA DIR/SP/G                  HT/PER
                 (F)     (DEG/KT/KT) (MB)    (MI)  (FT/S)
CALUMET HARBOR    47     340/ 11/ 14 1017.0F
MICHIGAN CITY     44      10/  6/  8   N/A
BURNS HARBOR      44      10/  3/  4 1017.9S
SAINT JOSEPH      51      10/  5/  7 1017.3
4 MI NW BRIDGMAN  44 43  310/  8/ 10 1017.7          1

$$
&&



USA.gov is the U.S. government's official web portal to all federal, state and local government web resources and services.